Weather History for Crestview, FL

Change the Weather History Date:

Thursday, November 29, 2012

  Actual Average Record
Temperature  
Mean Temperature 48 °F -  
Max Temperature 64 °F 66 °F 79 °F (1949)
Min Temperature 32 °F 40 °F 21 °F (1993)
Degree Days  
Heating Degree Days 17    
Moisture  
Dew Point 40 °F    
Average Humidity 84    
Maximum Humidity 100    
Minimum Humidity 52    
Precipitation  
Precipitation 0.00 in - - ()
Sea Level Pressure  
Sea Level Pressure 30.35 in    
Wind  
Wind Speed 1 mph (NE)    
Max Wind Speed 8 mph    
Max Gust Speed -    
Visibility 6 miles    
Events Fog    
Averages and records for this station are not official NWS values.
T = Trace of Precipitation, MM = Missing Value Source: NWS Daily Summary

Daily Weather History Graph

Daily Weather History Graph

Search for Another Location

Airport:

Trip Planner

Search our weather history database for the weather conditions in past years. The results will help you decide how hot, cold, wet, or windy it might be!

Date:

Astronomy

Nov. 29, 2012 Rise Set
Actual Time 6:24 AM CST 4:44 PM CST
Civil Twilight 5:58 AM CST 5:10 PM CST
Nautical Twilight 5:28 AM CST 5:40 PM CST
Astronomical Twilight 4:59 AM CST 6:09 PM CST
Moon 5:47 PM CST (11/29) 7:10 AM CST (11/29)
Length of Visible Light 11h 11m
Length of Day
10h 19m
Full, 99% of the Moon is Illuminated
Nov 29
Full
Dec 6
Last Quarter
Dec 13
New
Dec 19
First Quarter
Dec 28
Full

Hourly Weather History & Observations

Time (CST) Temp. Windchill Dew Point Humidity Pressure Visibility Wind Dir Wind Speed Gust Speed Precip Events Conditions
12:53 AM 36.0 °F - 34.0 °F 93% 30.36 in 5.0 mi Calm Calm - N/A   Clear
1:53 AM 34.0 °F - 32.0 °F 92% 30.36 in 5.0 mi Calm Calm - N/A   Clear
2:53 AM 33.1 °F - 30.9 °F 92% 30.36 in 4.0 mi Calm Calm - N/A   Clear
3:48 AM 32.0 °F - 30.2 °F 93% 30.35 in 5.0 mi Calm Calm - N/A   Partly Cloudy
3:53 AM 32.0 °F - 30.0 °F 92% 30.35 in 5.0 mi Calm Calm - N/A   Partly Cloudy
4:07 AM 32.0 °F - 30.2 °F 93% 30.35 in 2.5 mi Calm Calm - N/A   Mostly Cloudy
4:13 AM 32.0 °F - 30.2 °F 93% 30.35 in 0.8 mi Calm Calm - N/A   Mist
4:20 AM 32.0 °F - 30.2 °F 93% 30.35 in 0.5 mi Calm Calm - N/A Fog Fog
4:53 AM 33.1 °F - 32.0 °F 96% 30.35 in 0.2 mi Calm Calm - N/A Fog Fog
5:16 AM 33.8 °F - 33.8 °F 100% 30.36 in 0.5 mi Calm Calm - N/A Fog Fog
5:19 AM 33.8 °F - 33.8 °F 100% 30.35 in 1.0 mi Calm Calm - N/A   Overcast
5:27 AM 33.8 °F - 33.8 °F 100% 30.36 in 3.0 mi Calm Calm - N/A   Overcast
5:53 AM 36.0 °F - 35.1 °F 97% 30.37 in 4.0 mi Calm Calm - N/A   Overcast
6:53 AM 39.9 °F - 37.9 °F 93% 30.38 in 3.0 mi Calm Calm - N/A   Overcast
7:53 AM 43.0 °F 41.3 °F 41.0 °F 93% 30.40 in 4.0 mi ENE 3.5 mph - N/A   Overcast
8:53 AM 46.9 °F - 44.1 °F 90% 30.42 in 5.0 mi East 4.6 mph - N/A   Overcast
9:53 AM 55.0 °F - 45.0 °F 69% 30.41 in 9.0 mi East 8.1 mph - N/A   Scattered Clouds
10:53 AM 59.0 °F - 45.0 °F 60% 30.39 in 10.0 mi SE 8.1 mph - N/A   Clear
11:53 AM 59.0 °F - 45.0 °F 60% 30.37 in 10.0 mi NW 3.5 mph - N/A   Mostly Cloudy
12:53 PM 62.1 °F - 46.0 °F 56% 30.34 in 10.0 mi Calm Calm - N/A   Mostly Cloudy
1:03 PM 60.8 °F - 46.4 °F 59% 30.33 in 10.0 mi Calm Calm - N/A   Scattered Clouds
1:53 PM 63.0 °F - 46.9 °F 56% 30.31 in 10.0 mi NNE 4.6 mph - N/A   Mostly Cloudy
2:53 PM 64.9 °F - 46.9 °F 52% 30.30 in 10.0 mi Variable 3.5 mph - N/A   Clear
3:53 PM 63.0 °F - 48.0 °F 58% 30.30 in 10.0 mi ENE 3.5 mph - N/A   Clear
4:53 PM 55.9 °F - 50.0 °F 80% 30.30 in 7.0 mi Calm Calm - N/A   Partly Cloudy
5:53 PM 52.0 °F - 48.0 °F 86% 30.30 in 9.0 mi Calm Calm - N/A   Clear
6:53 PM 51.1 °F - 46.9 °F 86% 30.31 in 9.0 mi Calm Calm - N/A   Mostly Cloudy
7:53 PM 52.0 °F - 48.0 °F 86% 30.33 in 8.0 mi NNE 3.5 mph - N/A   Overcast
8:53 PM 53.1 °F - 48.9 °F 86% 30.33 in 10.0 mi Calm Calm - N/A   Mostly Cloudy
9:53 PM 52.0 °F - 48.9 °F 89% 30.32 in 10.0 mi Calm Calm - N/A   Overcast
10:53 PM 48.9 °F - 46.0 °F 90% 30.30 in 6.0 mi Calm Calm - N/A   Partly Cloudy
11:53 PM 48.9 °F - 46.9 °F 93% 30.30 in 7.0 mi Calm Calm - N/A   Mostly Cloudy